Upstream stations:
Downstream station:
SHEF ID: WDGO2 North Canadian River at Woodward
STATION TYPE:
Regulating: Stage = 9.00, Flow = 754
PRECIP STAGE RIV-FLOW BAT-LOAD
in ft cfs volt
Ccp-Rev Ccp-Rev Ccp-Rev Ccp-Rev
(US/Central)
07/07 00:00 0.00 2.06 11 12.71
07/07 01:00 0.00 2.07 11 12.70
07/07 02:00 0.00 2.06 11 12.67
07/07 03:00 0.00 2.05 10 12.67
07/07 04:00 0.00 2.05 10 12.65
07/07 05:00 0.00 2.06 11 12.63
07/07 06:00 0.00 2.05 10 12.62
07/07 07:00 0.00 2.06 11 12.61
07/07 08:00 0.00 2.06 11 12.60
07/07 09:00 0.00 2.07 11 12.67
07/07 10:00 0.00 2.07 11 12.86
07/07 11:00 0.00 2.07 11 13.18
07/07 12:00 0.00 2.06 11 13.11
07/07 13:00 0.00 2.07 11 13.29
07/07 14:00 0.00 2.07 11 13.37
07/07 15:00 0.00 2.07 11 13.36
07/07 16:00 0.00 2.05 10 13.36
07/07 17:00 0.00 2.04 10 13.23
07/07 18:00 0.00 2.02 9 13.26
07/07 19:00 0.00 2.03 9 13.07
07/07 20:00 0.00 2.03 9 12.83
07/07 21:00 0.00 2.04 10 12.76
07/07 22:00 0.00 2.05 10 12.73
07/07 23:00 0.00 2.05 10 12.71